BEIDOU-2 G7 (C03)

Last updated on Oct. 23, 2020, 5:57 a.m. UTC

1 41586U 16037A   20296.93085887 -.00000368  00000-0  00000-0 0  9996
2 41586   1.7532  67.5595 0008272   2.2305  47.6716  1.00276163 16107
UTC
Height (km)
Latitude
Longitude
Inclination
Orbital Period
UTC large
Height (km)
Speed (km/s)
/
Latitude / Longitude
Inclination (degrees)
Orbital Period (minutes)
Azimuth
Elevation
Range (km)
Doppler Factor
iOS Compass Heading
iOS Angle

Next 30 passes for location: Hong Kong

Rise time Rise Azimuth (degrees) Set time Set Azimuth (degrees) Duration Max altitude (degrees)

No matching passes for this satellites